When you browse on this site, cookies collect data to enhance your experience and personalize the content and advertising you see.
Visit our Privacy Policy to learn more. By continuing to use the site, you agree to this use of cookies and data.
  • In United Kingdom
  • List of Countries
  • For 7 days
  • Water Temperature
  • Weather Map
  • Weather Widgets
  • user-avatar
    Login

    Hourly Weather Mezokovesd

    Today, 23 January, Thursday

    Time Temperature Precipitation Wind Pressure Humidity
    00:00 -1°C° 0 mm 1 mps 762 mmHg 78%
    01:00 -2°C° 0 mm 2 mps 762 mmHg 80%
    02:00 -2°C° 0 mm 2 mps 763 mmHg 79%
    03:00 -2°C° 0 mm 2 mps 763 mmHg 78%
    04:00 0°C° 0 mm 1 mps 763 mmHg 76%
    05:00 0°C° 0 mm 1 mps 763 mmHg 77%
    06:00 0°C° 0 mm 1 mps 764 mmHg 78%
    07:00 -2°C° 0 mm 2 mps 764 mmHg 77%
    08:00 +1°C° 0 mm 1 mps 765 mmHg 73%
    09:00 +2°C° 0 mm 1 mps 765 mmHg 69%
    10:00 +3°C° 0 mm 1 mps 765 mmHg 65%
    11:00 +4°C° 0 mm 1 mps 765 mmHg 63%
    12:00 +4°C° 0 mm 1 mps 765 mmHg 61%
    13:00 +4°C° 0 mm 2 mps 765 mmHg 62%
    14:00 +3°C° 0 mm 2 mps 765 mmHg 67%
    15:00 +2°C° 0 mm 2 mps 764 mmHg 72%
    16:00 +1°C° 0 mm 2 mps 764 mmHg 77%
    17:00 +1°C° 0 mm 2 mps 764 mmHg 79%
    18:00 -1°C° 0 mm 2 mps 764 mmHg 81%
    19:00 +1°C° 0 mm 1 mps 764 mmHg 84%
    20:00 -2°C° 0 mm 2 mps 764 mmHg 85%
    21:00 -2°C° 0 mm 2 mps 764 mmHg 86%
    22:00 -2°C° 0 mm 2 mps 764 mmHg 88%
    23:00 0°C° 0 mm 1 mps 763 mmHg 88%

    Tomorrow, 24 January, Friday

    Time Temperature Precipitation Wind Pressure Humidity
    00:00 0°C° 0 mm 1 mps 763 mmHg 88%
    01:00 0°C° 0 mm 1 mps 763 mmHg 88%
    02:00 -1°C° 0 mm 1 mps 763 mmHg 88%
    03:00 -1°C° 0 mm 1 mps 762 mmHg 88%
    04:00 -1°C° 0 mm 1 mps 762 mmHg 88%
    05:00 -1°C° 0 mm 1 mps 762 mmHg 88%
    06:00 -1°C° 0 mm 1 mps 762 mmHg 87%
    07:00 -1°C° 0 mm 1 mps 762 mmHg 87%
    08:00 0°C° 0 mm 1 mps 762 mmHg 81%
    09:00 +1°C° 0 mm 1 mps 762 mmHg 75%
    10:00 +1°C° 0 mm 0 mps 761 mmHg 69%
    11:00 +3°C° 0 mm 1 mps 761 mmHg 65%
    12:00 +3°C° 0 mm 1 mps 761 mmHg 61%
    13:00 +4°C° 0 mm 1 mps 760 mmHg 57%
    14:00 +3°C° 0 mm 1 mps 760 mmHg 62%
    15:00 +3°C° 0 mm 1 mps 759 mmHg 66%
    16:00 +2°C° 0 mm 1 mps 759 mmHg 70%
    17:00 +1°C° 0 mm 1 mps 759 mmHg 73%
    18:00 +1°C° 0 mm 1 mps 758 mmHg 75%
    19:00 0°C° 0 mm 1 mps 758 mmHg 77%
    20:00 0°C° 0 mm 1 mps 758 mmHg 78%
    21:00 0°C° 0 mm 1 mps 758 mmHg 78%
    22:00 0°C° 0 mm 1 mps 758 mmHg 79%
    23:00 0°C° 0 mm 1 mps 758 mmHg 79%

    Day after tomorrow, 25 January, Saturday

    Time Temperature Precipitation Wind Pressure Humidity
    00:00 0°C° 0 mm 1 mps 758 mmHg 79%
    01:00 -1°C° 0 mm 1 mps 758 mmHg 79%
    02:00 -1°C° 0 mm 1 mps 757 mmHg 80%
    03:00 -2°C° 0 mm 0 mps 757 mmHg 80%
    04:00 -2°C° 0 mm 0 mps 757 mmHg 80%
    05:00 -2°C° 0 mm 0 mps 757 mmHg 80%
    06:00 -1°C° 0 mm 1 mps 757 mmHg 81%
    07:00 -1°C° 0 mm 1 mps 757 mmHg 81%
    08:00 0°C° 0 mm 1 mps 757 mmHg 76%
    09:00 +1°C° 0 mm 1 mps 757 mmHg 72%
    10:00 +2°C° 0 mm 1 mps 758 mmHg 68%
    11:00 +2°C° 0 mm 1 mps 757 mmHg 66%
    12:00 +3°C° 0 mm 1 mps 757 mmHg 65%
    13:00 +4°C° 0 mm 1 mps 757 mmHg 63%
    14:00 +3°C° 0 mm 1 mps 756 mmHg 67%
    15:00 +3°C° 0 mm 1 mps 756 mmHg 71%
    16:00 +1°C° 0 mm 0 mps 756 mmHg 75%
    17:00 +2°C° 0 mm 1 mps 756 mmHg 76%
    18:00 +2°C° 0 mm 1 mps 756 mmHg 78%
    19:00 +1°C° 0 mm 1 mps 756 mmHg 79%
    20:00 +1°C° 0.1 mm 1 mps 756 mmHg 80%
    21:00 +1°C° 0.1 mm 1 mps 756 mmHg 82%
    22:00 +1°C° 0.1 mm 1 mps 756 mmHg 84%
    23:00 +1°C° 0.2 mm 1 mps 756 mmHg 86%

    26 January, Sunday

    Time Temperature Precipitation Wind Pressure Humidity
    00:00 +1°C° 0.2 mm 1 mps 756 mmHg 89%
    01:00 -1°C° 0.2 mm 2 mps 756 mmHg 91%
    02:00 -1°C° 0.1 mm 2 mps 756 mmHg 91%
    03:00 -1°C° 0.1 mm 2 mps 756 mmHg 92%
    04:00 +1°C° 0.1 mm 1 mps 756 mmHg 92%
    05:00 +1°C° 0.1 mm 1 mps 756 mmHg 92%
    06:00 +1°C° 0.1 mm 1 mps 756 mmHg 93%
    07:00 +1°C° 0.1 mm 1 mps 756 mmHg 93%
    08:00 +2°C° 0 mm 1 mps 756 mmHg 92%
    09:00 +2°C° 0 mm 1 mps 756 mmHg 92%
    10:00 +2°C° 0 mm 1 mps 757 mmHg 91%
    11:00 +2°C° 0 mm 1 mps 756 mmHg 89%
    12:00 +3°C° 0 mm 1 mps 756 mmHg 88%
    13:00 +3°C° 0 mm 1 mps 756 mmHg 86%
    14:00 +3°C° 0 mm 1 mps 756 mmHg 88%
    15:00 +3°C° 0 mm 1 mps 756 mmHg 90%
    16:00 +3°C° 0 mm 1 mps 755 mmHg 92%
    17:00 +2°C° 0 mm 1 mps 755 mmHg 92%
    18:00 +2°C° 0 mm 1 mps 755 mmHg 93%
    19:00 +2°C° 0 mm 1 mps 755 mmHg 94%
    20:00 +2°C° 0 mm 1 mps 755 mmHg 94%
    21:00 +2°C° 0 mm 1 mps 755 mmHg 94%
    22:00 +2°C° 0 mm 1 mps 755 mmHg 94%
    23:00 +2°C° 0.1 mm 1 mps 755 mmHg 94%

    27 January, Monday

    Time Temperature Precipitation Wind Pressure Humidity
    00:00 +2°C° 0.1 mm 1 mps 755 mmHg 94%
    01:00 +2°C° 0.1 mm 1 mps 755 mmHg 95%
    02:00 +2°C° 0.2 mm 1 mps 755 mmHg 95%
    03:00 +2°C° 0.2 mm 1 mps 754 mmHg 96%
    04:00 +2°C° 0.2 mm 1 mps 754 mmHg 96%
    05:00 +2°C° 0 mm 1 mps 754 mmHg 96%
    06:00 +2°C° 0 mm 0 mps 754 mmHg 96%
    07:00 +2°C° 0 mm 0 mps 754 mmHg 96%
    08:00 +2°C° 0 mm 0 mps 754 mmHg 95%
    09:00 +2°C° 0 mm 0 mps 754 mmHg 93%
    10:00 +3°C° 0 mm 0 mps 754 mmHg 92%
    11:00 +5°C° 0 mm 1 mps 754 mmHg 90%
    12:00 +5°C° 0 mm 1 mps 754 mmHg 88%
    13:00 +6°C° 0 mm 1 mps 754 mmHg 86%
    14:00 +6°C° 0 mm 1 mps 754 mmHg 88%
    15:00 +5°C° 0 mm 1 mps 754 mmHg 90%
    16:00 +5°C° 0 mm 1 mps 753 mmHg 92%
    17:00 +4°C° 0 mm 1 mps 754 mmHg 93%
    18:00 +4°C° 0 mm 1 mps 754 mmHg 93%
    19:00 +3°C° 0 mm 1 mps 754 mmHg 94%
    20:00 +3°C° 0 mm 1 mps 754 mmHg 94%
    21:00 +3°C° 0 mm 1 mps 754 mmHg 94%
    22:00 +3°C° 0 mm 1 mps 754 mmHg 94%
    23:00 +3°C° 0 mm 1 mps 754 mmHg 94%

    28 January, Tuesday

    Time Temperature Precipitation Wind Pressure Humidity
    00:00 +2°C° 0 mm 1 mps 753 mmHg 95%
    01:00 +2°C° 0 mm 1 mps 753 mmHg 95%
    02:00 +2°C° 0 mm 1 mps 753 mmHg 96%
    03:00 +2°C° 0 mm 1 mps 753 mmHg 96%
    04:00 +3°C° 0 mm 1 mps 752 mmHg 96%
    05:00 +3°C° 0 mm 1 mps 752 mmHg 96%
    06:00 +3°C° 0 mm 1 mps 752 mmHg 96%
    07:00 +3°C° 0 mm 1 mps 752 mmHg 96%
    08:00 +2°C° 0 mm 2 mps 751 mmHg 95%
    09:00 +3°C° 0 mm 2 mps 751 mmHg 94%
    10:00 +3°C° 0 mm 3 mps 751 mmHg 93%
    11:00 +4°C° 0 mm 3 mps 750 mmHg 90%
    12:00 +4°C° 0 mm 4 mps 750 mmHg 87%
    13:00 +5°C° 0 mm 4 mps 749 mmHg 84%
    14:00 +5°C° 0 mm 4 mps 749 mmHg 84%
    15:00 +5°C° 0 mm 3 mps 749 mmHg 85%
    16:00 +5°C° 0 mm 3 mps 748 mmHg 85%
    17:00 +5°C° 0 mm 3 mps 748 mmHg 85%
    18:00 +5°C° 0 mm 3 mps 749 mmHg 85%
    19:00 +6°C° 0 mm 2 mps 749 mmHg 85%
    20:00 +6°C° 0 mm 2 mps 749 mmHg 85%
    21:00 +5°C° 0 mm 2 mps 749 mmHg 85%
    22:00 +4°C° 0 mm 3 mps 749 mmHg 85%
    23:00 +5°C° 0 mm 2 mps 749 mmHg 87%
    Show more